Location: Sternwarte Stuttgart
(48.7670°N, 9.1830°E)
Time: 12:10:15
(UTC+02:00)

ISS - All Passes

Search period start: 16 April 2014 00:00
Search period end: 26 April 2014 00:00
Orbit: 415 x 420 km, 51.6° (Epoch: 16 April)

Date Brightness Start Highest point End Pass type
(mag) Time Alt. Az. Time Alt. Az. Time Alt. Az.
16 Apr - 18:01:40 10° SW 18:04:52 43° SSE 18:08:05 10° ENE daylight
16 Apr - 19:38:15 10° W 19:41:36 60° NNW 19:44:56 10° ENE daylight
16 Apr - 21:15:19 10° WNW 21:18:38 54° N 21:21:57 10° E visible
16 Apr - 22:52:08 10° WNW 22:55:28 58° SSW 22:58:47 10° SE visible
17 Apr - 00:30:17 10° WSW 00:31:39 12° SW 00:33:01 10° SSW visible
17 Apr - 17:13:47 10° SSW 17:16:44 29° SE 17:19:42 10° E daylight
17 Apr - 18:49:56 10° WSW 18:53:18 74° NNW 18:56:40 10° ENE daylight
17 Apr - 20:27:01 10° WNW 20:30:18 50° N 20:33:36 10° E daylight
17 Apr - 22:03:51 10° WNW 22:07:14 82° SSW 22:10:36 10° ESE visible
17 Apr - 23:41:11 10° W 23:43:36 19° SW 23:46:01 10° S visible
18 Apr - 16:26:07 10° S 16:28:36 19° SE 16:31:05 10° E daylight
18 Apr - 18:01:38 10° WSW 18:05:00 85° SSE 18:08:22 10° ENE daylight
18 Apr - 19:38:38 10° W 19:41:56 49° N 19:45:13 10° ENE daylight
18 Apr - 21:15:33 10° WNW 21:18:56 76° NNE 21:22:18 10° ESE visible
18 Apr - 22:52:33 10° W 22:55:28 28° SW 22:58:23 10° SSE visible
19 Apr - 15:38:56 10° SSE 15:40:29 13° SE 15:42:02 10° ESE daylight
19 Apr - 17:13:22 10° SW 17:16:41 61° SSE 17:20:01 10° ENE daylight
19 Apr - 18:50:13 10° W 18:53:31 53° N 18:56:49 10° ENE daylight
19 Apr - 20:27:12 10° WNW 20:30:33 61° NNE 20:33:53 10° E daylight
19 Apr - 22:04:03 10° WNW 22:07:15 41° SSW 22:10:26 10° SE visible
20 Apr - 16:25:12 10° SW 16:28:23 41° SSE 16:31:34 10° ENE daylight
20 Apr - 18:01:45 10° W 18:05:04 61° NNW 18:08:25 10° ENE daylight
20 Apr - 19:38:48 10° WNW 19:42:06 53° N 19:45:25 10° E daylight
20 Apr - 21:15:36 10° WNW 21:18:56 61° SSW 21:22:15 10° SE visible
20 Apr - 22:53:35 10° WSW 22:55:08 13° SW 22:56:41 10° SSW visible
21 Apr - 15:37:11 10° SSW 15:40:05 28° SE 15:43:00 10° E daylight
21 Apr - 17:13:16 10° WSW 17:16:37 76° NNW 17:19:59 10° ENE daylight
21 Apr - 18:50:20 10° WNW 18:53:37 49° N 18:56:54 10° E daylight
21 Apr - 20:27:10 10° WNW 20:30:32 85° SSW 20:33:54 10° ESE daylight
21 Apr - 22:04:26 10° W 22:06:55 19° SW 22:09:25 10° S visible
22 Apr - 14:49:25 10° S 14:51:48 18° SE 14:54:12 10° E daylight
22 Apr - 16:24:48 10° WSW 16:28:09 82° SSE 16:31:31 10° ENE daylight
22 Apr - 18:01:47 10° W 18:05:04 50° N 18:08:21 10° ENE daylight
22 Apr - 19:38:42 10° WNW 19:42:04 73° NNE 19:45:25 10° ESE daylight
22 Apr - 21:15:39 10° W 21:18:37 29° SW 21:21:34 10° SSE visible
23 Apr - 14:02:14 10° SSE 14:03:32 12° SE 14:04:50 10° ESE daylight
23 Apr - 15:36:24 10° SW 15:39:42 58° SSE 15:43:00 10° ENE daylight
23 Apr - 17:13:12 10° W 17:16:30 54° N 17:19:48 10° ENE daylight
23 Apr - 18:50:11 10° WNW 18:53:31 60° NNE 18:56:51 10° E daylight
23 Apr - 20:27:01 10° WNW 20:30:14 43° SSW 20:33:26 10° SE daylight
24 Apr - 14:48:06 10° SW 14:51:14 39° SSE 14:54:23 10° ENE daylight
24 Apr - 16:24:34 10° W 16:27:54 63° NNW 16:31:14 10° ENE daylight
24 Apr - 18:01:37 10° WNW 18:04:55 52° N 18:08:13 10° E daylight
24 Apr - 19:38:25 10° WNW 19:41:45 64° SSW 19:45:04 10° SE daylight
24 Apr - 21:16:14 10° WSW 21:17:58 14° SW 21:19:42 10° SSW visible
25 Apr - 13:59:57 10° SSW 14:02:47 26° SE 14:05:38 10° E daylight
25 Apr - 15:35:56 10° WSW 15:39:17 79° NNW 15:42:39 10° ENE daylight
25 Apr - 17:12:59 10° WNW 17:16:15 49° N 17:19:32 10° ENE daylight
25 Apr - 18:49:49 10° WNW 18:53:11 89° SSW 18:56:33 10° ESE daylight
25 Apr - 20:27:01 10° W 20:29:35 21° SW 20:32:09 10° S daylight
